Погода в Волгограде

Погода в Волгограде : погода сейчас, прогноз погоды и архив. Всё, что Вы хотите узнать о погоде в Волгограде!

Хотите узнать прогноз погоды в Волгограде? Тогда Вам сюда: Погода в Волгограде

Поиск расширенной информации на нашем сайте:

Другие новости

Новости СМИ2

Главная страница сайта

Новости сайта

03.07.2017

Напоминаем, что на нашем специализированном сайте Метеоцентр.Азия вы можете получить высокодетализированные автоматические прогнозы погоды по пунктам России, СНГ и мира в авиационном формате (включающие направление и скорость ветра, видимость, явления погоды, количество и форму облачности, нижнюю и верхнюю границу облачности).


Погода в Волгограде - сегодня

Время (UTC), дата Ветер
(°,м/с) 
Видим.   Явления Облачность Т
(°С)
Тd
(°С)
f(%) Тe
(°С)
Pmin
(гПа)
dP
(гПа)
Po
(мм)
O2
(г/м3)
Тmin Tmax R s Состояние
почвы
09 13.01.18 060 (СВ) 10 км  {снег}  8/8 330 м 
[St]
-7.7 -9.8 85 -13  1038.2  0.3  763  318           
12 13.01.18 060 (СВ) 4000 м  слаб. ливневой снег  8/8 600 м кучево-дожд. 
[Cb calv]
-8.1 -10.4 83 -13  1038.7  0.5  764  318           
15 13.01.18 050 (СВ) 10 км  {ливн. осадки}  ясно 
-10.9 -13.8 79 -16  1039.9  764  322    -6.1       
18 13.01.18 080 (В) 10 км  {ливн. осадки}  ясно 
-11.7 -14.3 81 -17  1040.3  0.3  765  323           
21 13.01.18 080 (В) 10 км    ясно 
-13.5 -15.6 84 -20  1040.7  0.2  765  326           
00 14.01.18 090 (В) 10 км    ясно 
-14.8 -16.8 85 -20  1040.3  -0.5  764  327           
03 14.01.18 080 (В) 10 км    ясно 
-16.6 -18.2 87 -20  1040.2  -0.2  764  329  -16.4         
06 14.01.18 070 (В) 10 км    ясно 
-15.2 -16.7 88 -19  1040.4  0.3  765  328  -17.6         
09 14.01.18 070 (В) 10 км    ясно 
-10.6 -15 70 -15  1039.2  -0.8  764  322           
12 14.01.18 070 (В) 10 км    ясно 
-9.1 -14.3 66 -14  1038.6  -0.5  764  320           
15 14.01.18 050 (СВ) 10 км    ясно 
-12.7 -15.6 79 -16  1038.6  -0.4  763  324    -9       
18 14.01.18 080 (В) 10 км    ясно 
-13.7 -15.8 84 -17  1038.6  -0.1  763  325           
21 14.01.18 100 (В) 10 км    ясно 
-14.3 -16.4 84 -18  1038.5  -0.2  763  326           
00 15.01.18 110 (В) 10 км    ясно 
-14.4 -16.2 86 -18  1038.6  0.1  763  326           
03 15.01.18 100 (В) 10 км    ясно 
-14.8 -16.2 89 -18  1038.3  -0.3  763  326  -15.5         
06 15.01.18 100 (В) 10 км    ясно 
-14.1 -15.7 88 -18  1039.4  1.1  764  326  -15.6         
09 15.01.18 100 (В) 10 км    ясно 
-9.9 -17.1 56 -14  1038.8  -0.3  764  321           
12 15.01.18 090 (В) 10 км    ясно 
-8.6 -17.1 50 -13  1038.5  -0.1  764  319           
15 15.01.18 090 (В) 10 км    ясно 
-12 -16.9 67 -15  1038.6  -0.2  763  323    -8.4       
18 15.01.18 120 (ЮВ) 10 км    ясно 
-13 -17.6 68 -16  1038.9  0.2  764  325           
21 15.01.18 120 (ЮВ) 10 км    ясно 
-13.8 -16.4 81 -19  1038.1  -0.8  763  325           
00 16.01.18 120 (ЮВ) 10 км    ясно 
-14.3 -15.7 89 -19  1037.7  -0.5  763  326           
03 16.01.18 120 (ЮВ) 10 км    ясно 
-14.7 -16.1 89 -19  1036.3  -1.4  762  326  -15.4         
06 16.01.18 120 (ЮВ) 4000 м  дымка{снег}  5/5 100 м 
[St]
-14.9 -16.4 88 -20  1036.3  762  326  -16         
09 16.01.18 130 (ЮВ) 10 км  ледяные иглы{снег}  3/3 50 м 
[St]
-11.3 -12.9 88 -17  1034.9  -1.1  761  321           
Время (UTC), дата Ветер
(°,м/с) 
Видим.   Явления Облачность Т
(°С)
Тd
(°С)
f(%) Тe
(°С)
Pmin
(гПа)
dP
(гПа)
Po
(мм)
O2
(г/м3)
Тmin Tmax R s Состояние
почвы

Для получения пояснительной информации подведите курсор к названию столбца.

ПОГОДА в Волгограде - архив

Всё, что Вы хотите узнать о погоде в Волгограде - удобно и подробно!

Выберите нужную дату (начиная с 1 января 2015* года) и нажмите кнопку "Найти".
Будут отображены архивные сводки погоды по пункту Волгоград, начиная с указанной даты.


Отображать данные в формате CSV (для использования в таблицах Excel)


Внимание! Наш архив погоды предназначен исключительно для личного некоммерческого использования в познавательных целях. Если Вам необходимы официальные справки о состоянии погоды (для производственных, юридических, коммерческих и т.п. целей), обращайтесь в органы Росгидромета.

*Примечание: данная дата относится к архиву по метеостанциям СССР (Россия, СНГ, Балтия).
Архив по метеостанциям Зарубежной Европы и Азии (кроме Китая) хранится 10 дней, по другим регионам земного шара (Китай, Африка, Америка, Австралия, Океания) - 1 день.

Волгоград - район местоположения метеостанции


Название, широта, долгота, высота метеостанции:
Волгоград (Гумрак) 48.8°ш. 44.4°д. 134 м над ур. моря [Российская Федерация]

Дополнительная информация

В oтличие oт бoльшинства пoгoдных сайтoв мы публикуем пoдрoбную метеoинфoрмацию в детальнoм прoфессиoнальнoм фoрмате.

Характеристики температуры и влажнoсти вoздуха измеряются на высoте 2 м в тени вдали oт зданий и деревьев.
Скoрoсть ветра измеряется на высoте 10 м (на урoвне рoста челoвека скoрoсть ветра ниже в 1.5-2 раза). Если метеoстанция нахoдится в гoрoде или в лесу, тo скoрoсть ветра занижена на 2-4 м/с пo сравнению с oткрытым местoм. Скoрoсть ветра над акватoриями крупных рек и oзёр, а также на вершинах хoлмoв на 2-5 м/с выше, чем в oбычных услoвиях.
Атмoсфернoе давление в разных тoчках местнoсти мoжет значительнo oтличаться oт давления на метеoстанции, в зависимoсти oт услoвий рельефа (при пoдъёме на 10 м давление пoнижается примернo на 1 мм рт.ст.).